Regional Weather Roundup
Issued by NWS

Home | Current Version | Previous Version | Text Only | Print | Product List | Glossary Off
Versions: 1 2 3 4 5 6 7 8 9 10 11 12 13 14 15 16 17 18 19 20 21 22 23 24 25 26 27

000
ASUS45 KTFX 212110
RWRMT
MONTANA REGIONAL WEATHER ROUNDUP
NATIONAL WEATHER SERVICE GREAT FALLS MT
300 PM MDT SUN MAY 21 2017

NOTE: "FAIR" INDICATES FEW OR NO CLOUDS BELOW 12000 FEET WITH NO
SIGNIFICANT WEATHER AND/OR OBSTRUCTIONS TO VISIBILITY.

MTZ001>007-043-212200-
WEST OF THE DIVIDE

CITY           SKY/WX    TMP DP  RH WIND       PRES   REMARKS
KALISPELL      SUNNY     70  47  43 S9        30.19F
MISSOULA       SUNNY     71  39  31 VRB3      30.23F
BUTTE          MOSUNNY   63  22  20 NW9       30.28S
MULLAN PASS    MOSUNNY   59  31  34 NW6       30.32F
ANACONDA         N/A     63  30  29 NW7       30.27S
DEER LODGE       N/A     64  23  20 NW7       30.28F
EUREKA           N/A     73  43  33 NW3       30.19F
HAMILTON         N/A     68  30  24 N5        30.25S
LIBBY            N/A     75  37  25 W3        30.17F
PLAINS           N/A     73  43  34 CALM      30.20F
RONAN            N/A     70  41  34 SE3       30.26F
$$

MTZ008-052>055-212200-
SOUTHWEST MONTANA

CITY           SKY/WX    TMP DP  RH WIND       PRES   REMARKS
BOZEMAN        MOSUNNY   65  36  34 VRB6      30.25F
DILLON         SUNNY     63  31  30 VRB5      30.26S
W YELLOWSTONE  MOSUNNY   55  27  33 NE3       30.28F
ENNIS          SUNNY     61  27  27 NE8G17    30.31S
THREE FORKS      N/A     65  37  35 E1        30.22S
TWIN BRIDGES     N/A     65  31  28 W1        30.21F
$$

MTZ009-010-012-014-046-048-049-054-212200-
EAST SLOPES AND CENTRAL MONTANA

CITY           SKY/WX    TMP DP  RH WIND       PRES   REMARKS
CUT BANK       PTSUNNY   65  34  31 W12       30.17S
GREAT FALLS    CLOUDY    65  33  30 NE10G31   30.20R
HELENA         MOSUNNY   68  36  30 E8        30.21F
AUGUSTA        PTSUNNY   66  29  24 W6        30.21F
BOWMANS CRNR     N/A     63  31  29 SW5       30.20F
CHOTEAU          N/A     68  32  26 VRB5G15   30.21F
FAIRFIELD      PTSUNNY   67  30  25 CALM      30.19F
POWER            N/A     66  31  27 NW7       30.18F
RAYNESFORD       N/A     64  37  37 NW8       30.20F
ULM              N/A     67  35  30 NW6       30.19F
$$

MTZ011-013-016-021-045-047-050-051-212200-
NORTH CENTRAL MONTANA

CITY           SKY/WX    TMP DP  RH WIND       PRES   REMARKS
HAVRE          PTSUNNY   73  28  18 NW10      30.10F
LEWISTOWN      MOSUNNY   64  35  34 NW13G18   30.20S
N BAR RANCH      N/A     63  32  31 NW17G23   30.22S
CHINOOK          N/A     73  30  20 W8        30.08F
DENTON         PTSUNNY   62  38  41 N26G36    30.15F
FORT BENTON      N/A     73  30  20 MISG      30.14F
GEYSER           N/A     64  36  35 W15G24    30.19F
JUDITH GAP       N/A     61  32  33 NW20      30.21F
STANFORD         N/A     62  36  38 NW17      30.21F
WINIFRED       PTSUNNY   64  31  29 NW13      30.17F
$$

MTZ017>020-022>027-061-062-212200-
NORTHEAST MONTANA

CITY           SKY/WX    TMP DP  RH WIND       PRES   REMARKS
GLASGOW        CLOUDY    67  41  38 MISG      30.07R
JORDAN           N/A     65  35  33 NE16G31   30.10S
SIDNEY         PTSUNNY   64  41  42 NE8       30.00R
WOLF POINT     PTSUNNY   73  31  21 N14G26    29.99F
MALTA          MOSUNNY   72  28  20 NW15      30.06F
PLENTYWOOD       N/A     64  34  32 W20G29    29.98R
POPLAR           N/A     68  36  30 NE16G24   30.00S
SCOBEY           N/A     63  35  35 N18       30.02R
$$

MTZ028>42-056>058-212200-
SOUTHCENTRAL AND SOUTHEAST MONTANA

CITY           SKY/WX    TMP DP  RH WIND       PRES   REMARKS
BAKER          MOSUNNY   61  44  53 W8        30.05F
BILLINGS       MOSUNNY   68  30  24 N14       30.18S
LIVINGSTON     PTSUNNY   64  36  35 W10G17    30.23S
MILES CITY     MOSUNNY   74  28  18 NW21G30   30.04F
BIG TIMBER     MOSUNNY   63  34  34 CALM      30.25S
EKALAKA          N/A     54  41  61 N3        30.05R
FORSYTH          N/A     70  32  24 NW16G23   30.08F
LAUREL           N/A     66  36  33 W12       30.16F
ROUNDUP          N/A     67  35  30 N12       30.07S
$$

REGIONAL REPORTS...DAKOTAS

CITY           SKY/WX    TMP DP  RH WIND       PRES   REMARKS
WILLISTON      MOSUNNY   73  37  27 NW14G22   29.94F
MINOT          MOSUNNY   70  31  23 NW16G22   29.91F
DICKINSON      PTSUNNY   63  30  28 NW26G33   29.96R
BEACH          DRIZZLE   52  46  82 NW21G31   30.09R
TIOGA            N/A     68  27  21 N15G22    29.94S
WATFORD CITY     N/A     61  39  44 W16G26    29.95S
BISMARCK       MOSUNNY   72  31  22 NW17G24   29.92F
GRAND FORKS    CLOUDY    53  45  74 N16G23    29.89S
FARGO          LGT RAIN  51  46  83 NW12      29.90F
BUFFALO SD       N/A     51  46  83 E7        29.99R
RAPID CITY     LGT RAIN  56  44  64 N23       30.06R
$$

REGIONAL REPORTS...WYOMING/IDAHO/WASHINGTON

CITY           SKY/WX    TMP DP  RH WIND       PRES   REMARKS
GILLETTE       PTSUNNY   59  39  47 N24G30    30.14R
SHERIDAN       PTSUNNY   58  36  43 NW23G32   30.18S
BUFFALO WY     SUNNY     61  34  36 N29G43    30.17S
CODY           MOSUNNY   60  30  32 NE12      30.23S
YELLOWSTONE LA   N/A     47  25  42 SE6       30.32S
IDAHO FALLS    MOSUNNY   67  28  23 VRB3G20   30.21S
SALMON         SUNNY     66  34  30 W5        30.20F
BOISE          MOSUNNY   74  46  36 N6        30.20S
SPOKANE        MOSUNNY   73  40  30 CALM      30.23F
$$

REGIONAL REPORTS...ALBERTA

CITY           SKY/WX    TMP DP  RH WIND       PRES   REMARKS
EDMONTON       MOSUNNY   73  30  20 N12G22    30.10F
CALGARY        MOSUNNY   72  28  20 N17G31    30.16F
LETHBRIDGE     PTSUNNY   73  32  21 NW15G23   30.13S
MEDICINE HAT   PTSUNNY   72  37  28 SW16      30.06F
WATERTON GATE    N/A     66  30  26 NW7         N/A
CARDSTON         N/A     70  30  23 NW8G17      N/A
MILK RIVER       N/A     70  32  24 W16G23      N/A
$$

REGIONAL REPORTS...SASKATCHEWAN

CITY           SKY/WX    TMP DP  RH WIND       PRES   REMARKS
SWIFT CURRENT  SUNNY     66  34  30 W9        30.04F
REGINA         PTSUNNY   68  32  26 N22       29.96S
SASKATOON      PTSUNNY   70  34  26 NW16G23   30.01F
CYPRESS HILLS    N/A     61  30  31 NW8         N/A
ROCKGLEN         N/A     59  36  41 NE5         N/A
ASSINIBOIA       N/A     73  32  21 NW16G23     N/A
$$




USA.gov is the U.S. government's official web portal to all federal, state and local government web resources and services.